DW2213 Weather Reports


time (UTC)temp
C
wind
direction
speed
KPH
gust
KPH
rain 1hr
cm
rain 24hr
cm
rain mn
cm
humidity
%
barometer
mb
20260901060304 25 49 0.0 0.0 0.00 0.00 0.00 89 1013.9
20260901055805 25 49 0.0 0.0 0.00 0.00 0.00 89 1013.8
20260901055306 25 49 0.0 0.0 0.00 0.00 0.00 89 1013.9
20260901054804 25 49 0.0 0.0 0.00 0.00 0.00 89 1013.9
20260901053804 25 49 0.0 0.0 0.00 0.00 0.00 89 1013.8
20260901053304 25 49 0.0 0.0 0.00 0.00 0.00 89 1013.5
20260901052805 25 47 0.0 0.0 0.00 0.00 0.00 89 1013.5
20260901052307 25 47 0.0 0.0 0.00 0.00 0.00 89 1013.5
20260901051304 25 47 0.0 0.0 0.00 0.00 0.00 89 1013.6
20260901050804 25 47 0.0 0.0 0.00 0.00 0.00 89 1013.6
20260901050304 25 48 0.0 0.0 0.00 0.00 0.00 89 1013.4
20260901045804 25 46 0.0 0.0 0.00 0.00 0.00 89 1013.4
20260901044804 25 44 0.0 0.0 0.00 0.00 0.00 90 1013.2
20260901044304 25 47 0.0 1.6 0.00 0.00 0.00 90 1013.1
20260901043804 25 47 0.0 3.2 0.00 0.00 0.00 90 1013.0
20260901043304 25 37 0.0 0.0 0.00 0.00 0.00 90 1013.2
20260901042805 25 19 0.0 0.0 0.00 0.00 0.00 90 1013.2
20260901041804 25 31 0.0 0.0 0.00 0.00 0.00 90 1013.5
20260901041305 25 31 0.0 0.0 0.00 0.00 0.00 90 1013.6
20260901040804 25 31 0.0 0.0 0.00 0.00 0.00 90 1013.6
20260901040305 25 31 0.0 0.0 0.00 0.00 0.00 90 1013.7
20260901035805 25 31 0.0 0.0 0.00 0.00 0.00 90 1013.6
20260901035305 25 31 0.0 0.0 0.00 0.00 0.00 90 1013.6
20260901034804 25 31 0.0 0.0 0.00 0.00 0.00 90 1013.6
20260901034304 25 31 0.0 0.0 0.00 0.00 0.00 90 1013.6
20260901033804 25 31 0.0 0.0 0.00 0.00 0.00 90 1013.6
20260901032804 25 31 0.0 0.0 0.00 0.00 0.00 90 1013.6
20260901032306 25 31 0.0 0.0 0.00 0.00 0.00 90 1013.7
20260901031805 25 31 0.0 0.0 0.00 0.00 0.00 89 1013.8
20260901031304 25 31 0.0 0.0 0.00 0.00 0.00 89 1013.8
20260901030805 25 31 0.0 0.0 0.00 0.00 0.00 89 1013.8
20260901030304 25 31 0.0 0.0 0.00 0.00 0.00 89 1013.8
20260901025804 25 31 0.0 0.0 0.00 0.00 0.00 89 1013.7
20260901024304 25 31 0.0 0.0 0.00 0.00 0.00 89 1013.7
20260901023804 25 31 0.0 0.0 0.00 0.00 0.00 88 1013.7
20260901023304 25 31 0.0 0.0 0.00 0.00 0.00 88 1013.8
20260901022805 25 31 0.0 0.0 0.00 0.00 0.00 88 1013.9
20260901022306 26 31 0.0 0.0 0.00 0.00 0.00 88 1013.9
20260901021804 26 31 0.0 0.0 0.00 0.00 0.00 88 1014.0
20260901021304 26 31 0.0 0.0 0.00 0.00 0.00 88 1014.0
20260901020804 26 31 0.0 0.0 0.00 0.00 0.00 88 1014.0
20260901020304 26 31 0.0 0.0 0.00 0.00 0.00 88 1014.0
20260901015804 26 31 0.0 0.0 0.00 0.00 0.00 88 1014.0
20260901015305 26 31 0.0 0.0 0.00 0.00 0.00 88 1014.0
20260901014804 26 31 0.0 0.0 0.00 0.00 0.00 88 1014.1
20260901014304 26 31 0.0 0.0 0.00 0.00 0.00 88 1014.2
20260901013804 26 31 0.0 0.0 0.00 0.00 0.00 88 1014.2
20260901012306 26 31 0.0 0.0 0.00 0.00 0.00 88 1014.3
20260901011804 26 31 0.0 0.0 0.00 0.00 0.00 88 1014.3
20260901011304 26 31 0.0 0.0 0.00 0.00 0.00 87 1014.3
20260901010804 26 31 0.0 0.0 0.00 0.00 0.00 87 1014.5
20260901005307 26 31 0.0 0.0 0.00 0.00 0.00 87 1014.6
20260901004804 26 31 0.0 0.0 0.00 0.00 0.00 87 1014.6
20260901004304 26 31 0.0 0.0 0.00 0.00 0.00 87 1014.6
20260901003805 26 36 0.0 0.0 0.00 0.00 0.00 87 1014.7
20260901003304 26 44 1.6 3.2 0.00 0.00 0.00 87 1014.7
20260901002805 26 44 0.0 3.2 0.00 0.00 0.00 87 1014.6
20260901002305 26 44 0.0 1.6 0.00 0.00 0.00 87 1014.7
20260901001804 26 44 0.0 1.6 0.00 0.00 0.00 87 1014.7
20260901001304 26 44 0.0 1.6 0.00 0.00 0.00 87 1014.6
20260901000804 26 43 0.0 3.2 0.00 0.00 0.00 87 1014.6
20260901000304 26 347 0.0 1.6 0.00 0.00 0.00 87 1014.7
20260831235804 26 24 0.0 4.8 0.00 0.00 0.00 87 1014.7
20260831235306 26 34 0.0 0.0 0.00 0.00 0.00 87 1014.8
20260831234804 26 34 0.0 4.8 0.00 0.00 0.00 87 1014.8
20260831234305 26 27 0.0 3.2 0.00 0.00 0.00 87 1014.8
20260831233804 26 25 0.0 3.2 0.00 0.00 0.00 87 1014.8
20260831233305 26 0 0.0 4.8 0.00 0.00 0.00 87 1014.8
20260831232804 26 0 0.0 4.8 0.00 0.00 0.00 87 1014.8
20260831231304 26 19 0.0 4.8 0.00 0.00 0.00 86 1014.8
20260831230803 26 102 0.0 1.6 0.00 0.00 0.00 86 1014.8
20260831230304 26 102 0.0 1.6 0.00 0.00 0.00 86 1014.8
20260831225804 26 102 0.0 0.0 0.00 0.00 0.00 86 1014.8
20260831225306 26 102 0.0 1.6 0.00 0.00 0.00 86 1014.7
20260831224304 27 102 0.0 3.2 0.00 0.00 0.00 86 1014.8
20260831223804 27 102 0.0 1.6 0.00 0.00 0.00 85 1014.7
20260831223304 26 102 0.0 0.0 0.00 0.00 0.00 85 1014.7
20260831222804 26 102 0.0 0.0 0.00 0.00 0.00 85 1014.8
20260831221804 26 102 0.0 0.0 0.00 0.00 0.00 85 1014.7
20260831220819 26 102 0.0 3.2 0.00 0.00 0.00 85 1014.6
20260831220305 26 87 0.0 1.6 0.00 0.00 0.00 85 1014.5
20260831215804 26 86 0.0 0.0 0.00 0.00 0.00 85 1014.4
20260831215306 26 86 0.0 1.6 0.00 0.00 0.00 85 1014.4
20260831214304 27 86 0.0 1.6 0.00 0.00 0.00 85 1014.4
20260831213804 27 86 0.0 0.0 0.00 0.00 0.00 85 1014.4
20260831213304 27 86 0.0 0.0 0.00 0.00 0.00 85 1014.3
20260831212804 27 86 0.0 0.0 0.00 0.00 0.00 85 1014.2
20260831212306 27 86 0.0 1.6 0.00 0.00 0.00 85 1014.2
20260831211804 27 86 0.0 3.2 0.00 0.00 0.00 85 1014.2
20260831211304 27 86 0.0 3.2 0.00 0.00 0.00 85 1014.1
20260831210304 27 104 0.0 1.6 0.00 0.00 0.00 85 1014.1
20260831205804 27 104 0.0 3.2 0.00 0.00 0.00 85 1014.1
20260831205305 27 104 0.0 3.2 0.00 0.00 0.00 85 1014.1
20260831203803 27 107 0.0 3.2 0.00 0.00 0.00 84 1014.0
20260831203304 27 102 0.0 3.2 0.00 0.00 0.00 84 1013.9
20260831201804 27 132 0.0 3.2 0.00 0.00 0.00 83 1013.7
20260831201304 27 135 1.6 8.0 0.00 0.00 0.00 83 1013.7
20260831200803 27 78 0.0 3.2 0.00 0.00 0.00 83 1013.7
20260831200303 27 77 0.0 0.0 0.00 0.00 0.00 83 1013.7
20260831195804 27 77 0.0 3.2 0.00 0.00 0.00 83 1013.6
20260831195306 27 79 0.0 4.8 0.00 0.00 0.00 83 1013.5
20260831194803 27 85 0.0 3.2 0.00 0.00 0.00 82 1013.3
20260831194304 27 85 1.6 3.2 0.00 0.00 0.00 82 1013.2
20260831193804 27 9 0.0 1.6 0.00 0.00 0.00 82 1013.1
20260831193304 27 10 0.0 0.0 0.00 0.00 0.00 82 1012.9
20260831192804 27 9 1.6 4.8 0.00 0.00 0.00 82 1012.9
20260831192305 27 66 0.0 3.2 0.00 0.00 0.00 82 1012.8
20260831191303 27 63 0.0 1.6 0.00 0.00 0.00 82 1012.7
20260831190804 27 56 0.0 3.2 0.00 0.00 0.00 82 1012.6
20260831190304 27 77 1.6 11.3 0.00 0.00 0.00 81 1012.5
20260831185804 27 120 0.0 3.2 0.00 0.00 0.00 81 1012.5
20260831185306 27 121 0.0 1.6 0.00 0.00 0.00 81 1012.5
20260831184803 27 121 0.0 4.8 0.00 0.00 0.00 81 1012.5
20260831184304 27 332 0.0 4.8 0.00 0.00 0.00 81 1012.5
20260831183303 27 140 0.0 4.8 0.00 0.00 0.00 81 1012.3
20260831182804 27 131 0.0 1.6 0.00 0.00 0.00 80 1012.3
20260831182305 27 121 0.0 9.7 0.00 0.00 0.00 80 1012.3
20260831181804 27 136 0.0 3.2 0.00 0.00 0.00 80 1012.3
20260831181304 27 136 0.0 4.8 0.00 0.00 0.00 79 1012.3
20260831180804 27 145 1.6 4.8 0.00 0.00 0.00 79 1012.3
20260831180304 27 128 1.6 8.0 0.00 0.00 0.00 79 1012.2
20260831175803 27 112 1.6 9.7 0.00 0.00 0.00 78 1012.2
20260831174804 27 134 1.6 8.0 0.00 0.00 0.00 77 1012.2
20260831174304 27 133 1.6 8.0 0.00 0.00 0.00 76 1012.2
20260831172803 28 135 1.6 8.0 0.00 0.00 0.00 75 1012.0
20260831172306 28 117 0.0 8.0 0.00 0.00 0.00 74 1012.0
20260831171304 28 145 1.6 8.0 0.00 0.00 0.00 74 1011.9
20260831170305 28 130 1.6 8.0 0.00 0.00 0.00 72 1011.9
20260831165805 28 137 1.6 11.3 0.00 0.00 0.00 71 1011.9
20260831164805 29 147 3.2 8.0 0.00 0.00 0.00 69 1012.0
20260831164305 30 128 3.2 9.7 0.00 0.00 0.00 69 1012.0
20260831163805 30 138 3.2 9.7 0.00 0.00 0.00 68 1012.0
20260831162306 30 113 3.2 9.7 0.00 0.00 0.00 64 1012.2
20260831161305 31 132 1.6 8.0 0.00 0.00 0.00 56 1012.2
20260831160805 31 129 1.6 8.0 0.00 0.00 0.00 56 1012.2
20260831160305 31 151 3.2 8.0 0.00 0.00 0.00 54 1012.3
20260831155805 31 115 1.6 4.8 0.00 0.00 0.00 54 1012.3
20260831154805 31 144 3.2 8.0 0.00 0.00 0.00 55 1012.4
20260831154305 31 118 1.6 8.0 0.00 0.00 0.00 55 1012.5
20260831153805 31 142 3.2 12.9 0.00 0.00 0.00 56 1012.4
20260831152804 31 152 3.2 9.7 0.00 0.00 0.00 58 1012.5
20260831152306 31 145 3.2 8.0 0.00 0.00 0.00 59 1012.5
20260831151804 31 127 1.6 8.0 0.00 0.00 0.00 61 1012.5
20260831151305 31 144 1.6 4.8 0.00 0.00 0.00 63 1012.5
20260831150805 31 151 1.6 9.7 0.00 0.00 0.00 66 1012.6
20260831150305 30 153 0.0 8.0 0.00 0.00 0.00 67 1012.6
20260831145805 31 144 0.0 4.8 0.00 0.00 0.00 67 1012.5
20260831145306 31 127 1.6 8.0 0.00 0.00 0.00 67 1012.5
20260831144805 31 150 3.2 9.7 0.00 0.00 0.00 67 1012.6
20260831144304 31 165 3.2 8.0 0.00 0.00 0.00 67 1012.6
20260831143805 31 141 4.8 9.7 0.00 0.00 0.00 67 1012.6
20260831143305 31 140 3.2 9.7 0.00 0.00 0.00 67 1012.7
20260831142805 31 132 3.2 8.0 0.00 0.00 0.00 67 1012.7
20260831142306 31 133 3.2 8.0 0.00 0.00 0.00 67 1012.6
20260831141805 31 160 3.2 12.9 0.00 0.00 0.00 67 1012.6
20260831141305 30 186 3.2 9.7 0.00 0.00 0.00 69 1012.6
20260831140804 30 142 1.6 8.0 0.00 0.00 0.00 68 1012.7
20260831135805 31 147 0.0 11.3 0.00 0.00 0.00 67 1012.8
20260831135306 30 158 1.6 8.0 0.00 0.00 0.00 70 1012.7
20260831134805 30 119 1.6 8.0 0.00 0.00 0.00 69 1012.8
20260831134305 30 13 3.2 8.0 0.00 0.00 0.00 67 1012.8
20260831133805 31 74 1.6 4.8 0.00 0.00 0.00 65 1012.9
20260831133305 31 46 1.6 4.8 0.00 0.00 0.00 65 1012.9
20260831132805 31 342 1.6 4.8 0.00 0.00 0.00 66 1012.9
20260831132307 30 7 3.2 4.8 0.00 0.00 0.00 66 1012.8
20260831131805 31 1 3.2 9.7 0.00 0.00 0.00 65 1012.9
20260831131305 31 331 1.6 4.8 0.00 0.00 0.00 66 1012.9
20260831130805 31 88 1.6 8.0 0.00 0.00 0.00 66 1012.9
20260831130304 31 50 1.6 8.0 0.00 0.00 0.00 65 1012.9
20260831125805 30 50 0.0 4.8 0.00 0.00 0.00 67 1013.0
20260831125306 30 60 3.2 9.7 0.00 0.00 0.00 67 1013.1
20260831124804 30 53 3.2 9.7 0.00 0.00 0.00 66 1013.1
20260831124304 31 326 1.6 4.8 0.00 0.00 0.00 66 1013.2
20260831123304 31 24 1.6 4.8 0.00 0.00 0.00 65 1013.3
20260831122805 31 355 1.6 8.0 0.00 0.00 0.00 65 1013.3
20260831122306 31 98 1.6 8.0 0.00 0.00 0.00 67 1013.4
20260831121804 30 106 1.6 4.8 0.00 0.00 0.00 65 1013.4
20260831121304 30 56 0.0 4.8 0.00 0.00 0.00 65 1013.5
20260831120304 30 22 1.6 4.8 0.00 0.00 0.00 66 1013.4
20260831115805 31 264 1.6 4.8 0.00 0.00 0.00 65 1013.5
20260831115306 30 38 0.0 4.8 0.00 0.00 0.00 67 1013.6
20260831114805 30 46 1.6 4.8 0.00 0.00 0.00 67 1013.6
20260831114304 30 26 1.6 8.0 0.00 0.00 0.00 66 1013.6
20260831113804 30 356 0.0 4.8 0.00 0.00 0.00 65 1013.5
20260831113305 30 354 1.6 8.0 0.00 0.00 0.00 66 1013.6
20260831112805 30 41 1.6 9.7 0.00 0.00 0.00 67 1013.7
20260831112307 30 47 1.6 4.8 0.00 0.00 0.00 67 1013.7
20260831111805 30 0 3.2 8.0 0.00 0.00 0.00 66 1013.7
20260831111305 30 13 1.6 4.8 0.00 0.00 0.00 67 1013.8
20260831110805 30 330 1.6 8.0 0.00 0.00 0.00 67 1013.8
20260831110305 30 323 1.6 4.8 0.00 0.00 0.00 67 1013.9
20260831105306 30 346 0.0 4.8 0.00 0.00 0.00 67 1014.1
20260831103804 30 59 1.6 8.0 0.00 0.00 0.00 68 1014.1
20260831103304 30 48 0.0 3.2 0.00 0.00 0.00 69 1014.1
20260831102804 28 74 1.6 8.0 0.00 0.00 0.00 71 1014.1
20260831102306 28 1 1.6 9.7 0.00 0.00 0.00 71 1014.1
20260831101805 29 37 1.6 4.8 0.00 0.00 0.00 69 1014.1
20260831101304 29 29 1.6 4.8 0.00 0.00 0.00 70 1014.0
20260831100805 28 0 1.6 8.0 0.00 0.00 0.00 72 1014.1
20260831095306 28 38 1.6 8.0 0.00 0.00 0.00 72 1014.1
20260831094805 28 93 0.0 3.2 0.00 0.00 0.00 72 1014.1
20260831093304 28 96 1.6 4.8 0.00 0.00 0.00 71 1014.0
20260831092805 28 48 1.6 4.8 0.00 0.00 0.00 71 1014.0
20260831092306 28 37 1.6 4.8 0.00 0.00 0.00 71 1014.0
20260831091805 28 345 0.0 4.8 0.00 0.00 0.00 71 1013.9
20260831091304 28 320 0.0 1.6 0.00 0.00 0.00 72 1013.9
20260831090805 28 318 0.0 0.0 0.00 0.00 0.00 72 1013.8
20260831090305 27 309 0.0 0.0 0.00 0.00 0.00 73 1013.8
20260831085805 27 294 0.0 0.0 0.00 0.00 0.00 72 1013.7
20260831085306 27 294 0.0 0.0 0.00 0.00 0.00 73 1013.7
20260831084805 27 294 0.0 0.0 0.00 0.00 0.00 72 1013.6
20260831084305 27 295 0.0 0.0 0.00 0.00 0.00 73 1013.5
20260831083805 27 295 0.0 0.0 0.00 0.00 0.00 73 1013.4
20260831083305 26 294 0.0 0.0 0.00 0.00 0.00 74 1013.3
20260831082805 27 294 0.0 0.0 0.00 0.00 0.00 73 1013.3
20260831082306 26 297 0.0 0.0 0.00 0.00 0.00 74 1013.2
20260831081805 26 319 0.0 0.0 0.00 0.00 0.00 76 1013.2
20260831081305 26 313 0.0 0.0 0.00 0.00 0.00 76 1013.1
20260831080804 26 314 0.0 0.0 0.00 0.00 0.00 76 1013.1
20260831080305 26 314 0.0 0.0 0.00 0.00 0.00 77 1013.0
20260831075804 25 223 0.0 0.0 0.00 0.00 0.00 77 1012.9
20260831074304 25 223 0.0 0.0 0.00 0.00 0.00 79 1012.9
20260831073805 25 223 0.0 0.0 0.00 0.00 0.00 79 1012.9
20260831072804 25 223 0.0 0.0 0.00 0.00 0.00 80 1012.9
20260831072306 25 223 0.0 0.0 0.00 0.00 0.00 82 1012.9
20260831071805 24 223 0.0 0.0 0.00 0.00 0.00 82 1012.8
20260831070805 24 223 0.0 0.0 0.00 0.00 0.00 83 1012.7
20260831070304 23 223 0.0 0.0 0.00 0.00 0.00 83 1012.7
20260831065804 23 223 0.0 0.0 0.00 0.00 0.00 84 1012.7
20260831065306 23 223 0.0 0.0 0.00 0.00 0.00 85 1012.7
20260831064304 23 222 0.0 0.0 0.00 0.00 0.00 86 1012.5
20260831063804 23 222 0.0 0.0 0.00 0.00 0.00 86 1012.4
20260831063305 23 222 0.0 0.0 0.00 0.00 0.00 86 1012.4
20260831062306 22 222 0.0 0.0 0.00 0.00 0.00 87 1012.1
20260831061304 22 222 0.0 0.0 0.00 0.00 0.00 88 1012.0